GW6002 Weather Reports


Display with metric or nautical units.
time (UTC)temp
F
wind
direction
speed
MPH
gust
MPH
rain 1hr
in
rain 24hr
in
rain mn
in
humidity
%
barometer
mb
20260906014554 53 266 9.0 11.0 0.00 0.00 0.00 92 1006.0
20260906014050 54 258 6.0 10.0 0.00 0.00 0.00 92 1005.7
20260906013545 54 264 12.0 15.0 0.00 0.00 0.00 92 1005.9
20260906013040 54 254 13.0 17.0 0.00 0.00 0.00 91 1006.0
20260906012535 54 290 11.0 15.0 0.00 0.00 0.00 90 1005.8
20260906012035 54 265 17.0 19.0 0.00 0.00 0.00 90 1005.8
20260906011531 54 274 13.0 16.0 0.00 0.00 0.00 90 1006.3
20260906011031 54 253 13.0 17.0 0.00 0.00 0.00 89 1006.0
20260906010526 54 280 11.0 15.0 0.00 0.00 0.00 90 1006.0
20260906010022 54 282 14.0 16.0 0.00 0.00 0.00 90 1006.1
20260906005521 54 245 13.0 17.0 0.00 0.00 0.00 90 1005.9
20260906005020 54 263 13.0 16.0 0.00 0.00 0.00 90 1005.9
20260906004515 54 267 11.0 16.0 0.00 0.00 0.00 90 1005.9
20260906004010 54 270 9.0 15.0 0.00 0.00 0.00 90 1005.9
20260906003505 54 261 10.0 18.0 0.00 0.00 0.00 89 1005.9
20260906003001 54 266 14.0 17.0 0.00 0.00 0.00 89 1006.1
20260906002501 54 259 9.0 11.0 0.00 0.00 0.00 89 1006.0
20260906001955 54 255 9.0 15.0 0.00 0.00 0.00 89 1006.2
20260906001451 54 274 10.0 15.0 0.00 0.00 0.00 90 1005.7
20260906000945 54 269 13.0 15.0 0.00 0.00 0.00 90 1005.6
20260906000441 54 272 7.0 9.0 0.00 0.00 0.00 89 1005.8
20260905235936 54 280 9.0 13.0 0.00 0.00 0.00 89 1006.1
20260905235436 54 286 8.0 15.0 0.00 0.00 0.00 89 1005.7
20260905234931 54 268 9.0 16.0 0.00 0.00 0.00 89 1005.9
20260905234426 54 252 11.0 14.0 0.00 0.00 0.00 89 1006.1
20260905233920 54 276 9.0 15.0 0.00 0.00 0.00 89 1006.0
20260905233416 55 265 7.0 11.0 0.00 0.00 0.00 89 1006.1
20260905232915 55 267 10.0 16.0 0.00 0.00 0.00 89 1005.9
20260905232411 55 273 10.0 14.0 0.00 0.00 0.00 89 1005.8
20260905231906 55 269 7.0 10.0 0.00 0.00 0.00 89 1005.8
20260905231402 55 263 7.0 11.0 0.00 0.00 0.00 89 1005.9
20260905230859 55 248 14.0 16.0 0.00 0.00 0.00 88 1005.6
20260905230356 55 268 12.0 15.0 0.00 0.00 0.00 88 1005.8
20260905225855 55 257 16.0 21.0 0.00 0.00 0.00 88 1005.7
20260905225350 55 254 11.0 14.0 0.00 0.00 0.00 88 1005.8
20260905224845 55 264 17.0 19.0 0.00 0.00 0.00 88 1005.7
20260905224341 55 260 8.0 14.0 0.00 0.00 0.00 88 1005.7
20260905223836 55 257 13.0 22.0 0.00 0.00 0.00 88 1005.7
20260905223333 55 268 11.0 14.0 0.00 0.00 0.00 88 1005.7
20260905222828 55 262 7.0 13.0 0.00 0.00 0.00 88 1005.6
20260905222327 55 266 8.0 10.0 0.00 0.00 0.00 88 1005.8
20260905221818 55 245 9.0 9.0 0.00 0.00 0.00 88 1005.7
20260905221314 55 269 12.0 17.0 0.00 0.00 0.00 88 1005.8
20260905220810 55 261 8.0 13.0 0.00 0.00 0.00 88 1005.8
20260905220306 55 265 8.0 15.0 0.00 0.00 0.00 88 1005.8
20260905215805 55 247 7.0 11.0 0.00 0.00 0.00 88 1005.8
20260905215301 55 279 11.0 13.0 0.00 0.00 0.00 88 1005.6
20260905214756 55 267 8.0 11.0 0.00 0.00 0.00 87 1006.0
20260905214252 55 247 11.0 14.0 0.00 0.00 0.00 88 1005.8
20260905213747 55 269 7.0 13.0 0.00 0.00 0.00 87 1005.8
20260905213243 55 264 9.0 13.0 0.00 0.00 0.00 87 1005.9
20260905212738 55 260 13.0 15.0 0.00 0.00 0.00 87 1006.0
20260905212237 55 259 7.0 14.0 0.00 0.00 0.00 87 1005.7
20260905211736 55 282 8.0 13.0 0.00 0.00 0.00 87 1005.9
20260905211232 55 255 7.0 11.0 0.00 0.00 0.00 87 1005.8
20260905210729 55 263 10.0 13.0 0.00 0.00 0.00 87 1005.7
20260905210228 56 263 9.0 13.0 0.00 0.00 0.00 87 1005.9
20260905205727 56 264 11.0 13.0 0.00 0.45 0.45 87 1005.5
20260905205222 56 275 11.0 19.0 0.00 0.45 0.45 87 1005.9
20260905204722 56 268 6.0 14.0 0.00 0.45 0.45 87 1005.8
20260905204218 56 169 8.0 11.0 0.00 0.45 0.45 87 1005.8
20260905203717 56 253 15.0 16.0 0.00 0.45 0.45 87 1005.8
20260905203213 56 242 7.0 9.0 0.00 0.45 0.45 88 1006.0
20260905202708 56 268 7.0 9.0 0.00 0.45 0.45 88 1006.1
20260905202203 56 263 9.0 11.0 0.00 0.45 0.45 87 1006.0
20260905201659 56 255 12.0 14.0 0.00 0.45 0.45 87 1005.8
20260905201158 56 256 9.0 11.0 0.00 0.45 0.45 88 1005.9
20260905200654 56 257 7.0 9.0 0.00 0.45 0.45 87 1006.0
20260905200149 56 273 7.0 9.0 0.00 0.45 0.45 87 1006.0
20260905195647 56 266 9.0 11.0 0.00 0.45 0.45 87 1005.8
20260905195143 56 254 9.0 13.0 0.00 0.45 0.45 88 1005.9
20260905194637 56 263 9.0 10.0 0.00 0.45 0.45 87 1006.0
20260905194132 56 239 9.0 9.0 0.00 0.45 0.45 87 1006.0
20260905193627 56 271 8.0 10.0 0.00 0.45 0.45 87 1005.9
20260905193127 56 267 11.0 15.0 0.00 0.45 0.45 87 1006.0
20260905192622 56 262 15.0 16.0 0.00 0.45 0.45 88 1006.0
20260905192119 56 252 8.0 11.0 0.00 0.45 0.45 88 1006.1
20260905191618 56 247 9.0 13.0 0.00 0.45 0.45 88 1006.0
20260905191116 55 267 12.0 15.0 0.00 0.45 0.45 88 1005.8
20260905190614 56 239 7.0 15.0 0.00 0.45 0.45 88 1005.7
20260905190109 55 240 6.0 13.0 0.00 0.45 0.45 89 1005.6
20260905185608 56 239 9.0 10.0 0.00 0.45 0.45 89 1005.8
20260905185108 56 267 8.0 14.0 0.00 0.45 0.45 89 1005.6
20260905184602 56 263 10.0 11.0 0.00 0.45 0.45 89 1005.6
20260905184101 56 256 9.0 10.0 0.00 0.45 0.45 89 1005.5
20260905183601 56 258 8.0 11.0 0.00 0.45 0.45 89 1005.7
20260905183057 56 259 7.0 11.0 0.00 0.45 0.45 89 1005.8
20260905182556 56 260 7.0 9.0 0.00 0.45 0.45 89 1005.6
20260905182051 56 260 9.0 11.0 0.00 0.45 0.45 89 1005.8
20260905181551 56 233 7.0 14.0 0.00 0.45 0.45 89 1005.7
20260905181050 56 266 8.0 10.0 0.00 0.45 0.45 88 1005.5
20260905180544 57 243 8.0 13.0 0.00 0.45 0.45 88 1005.7
20260905180040 56 244 10.0 13.0 0.00 0.45 0.45 88 1005.6
20260905175539 57 267 11.0 14.0 0.00 0.45 0.45 88 1005.7
20260905175035 57 254 10.0 13.0 0.00 0.45 0.45 88 1005.8
20260905174530 57 250 8.0 13.0 0.00 0.45 0.45 88 1005.5
20260905174026 57 265 9.0 13.0 0.00 0.45 0.45 88 1005.5
20260905173522 57 251 14.0 16.0 0.00 0.45 0.45 87 1005.5
20260905173017 57 265 9.0 14.0 0.00 0.45 0.45 88 1005.1
20260905172515 57 217 8.0 14.0 0.00 0.45 0.45 88 1005.2
20260905172011 57 252 6.0 8.0 0.00 0.45 0.45 89 1005.1
20260905171508 57 251 8.0 9.0 0.00 0.45 0.45 89 1005.1
20260905171004 57 248 8.0 9.0 0.00 0.45 0.45 88 1005.1
20260905170500 57 242 9.0 13.0 0.00 0.45 0.45 89 1005.3
20260905165959 57 261 5.0 10.0 0.00 0.45 0.45 88 1005.1
20260905165455 57 266 6.0 14.0 0.00 0.45 0.45 88 1005.1
20260905164950 57 286 8.0 13.0 0.00 0.45 0.45 89 1005.0
20260905164449 57 249 10.0 13.0 0.00 0.45 0.45 89 1004.9
20260905163944 57 267 10.0 11.0 0.00 0.45 0.45 89 1004.7
20260905163441 57 248 9.0 11.0 0.00 0.45 0.45 88 1004.8
20260905162937 57 277 8.0 17.0 0.00 0.45 0.45 88 1004.7
20260905162432 57 264 12.0 15.0 0.00 0.45 0.45 88 1004.9
20260905161927 57 261 15.0 18.0 0.00 0.45 0.45 88 1004.7
20260905161426 57 235 11.0 13.0 0.00 0.45 0.45 88 1004.5
20260905160924 57 257 10.0 19.0 0.00 0.45 0.45 88 1004.6
20260905160419 57 264 7.0 11.0 0.00 0.45 0.45 89 1004.9
20260905155918 57 259 9.0 14.0 0.00 0.45 0.45 88 1004.8
20260905155418 57 269 11.0 17.0 0.00 0.45 0.45 88 1004.5
20260905154917 57 257 9.0 14.0 0.05 0.45 0.45 88 1004.6
20260905154413 57 270 15.0 21.0 0.05 0.45 0.45 88 1004.8
20260905153908 57 253 15.0 23.0 0.00 0.44 0.44 87 1004.6
20260905153404 58 260 15.0 19.0 0.00 0.44 0.44 85 1004.3
20260905152904 58 239 14.0 17.0 0.00 0.44 0.44 85 1004.4
20260905152403 58 268 11.0 21.0 0.00 0.44 0.44 85 1004.4
20260905151858 58 254 7.0 13.0 0.00 0.44 0.44 86 1004.3
20260905151355 58 257 7.0 11.0 0.00 0.44 0.44 87 1004.1
20260905150855 57 284 4.0 10.0 0.00 0.44 0.44 88 1004.2
20260905150354 57 256 7.0 16.0 0.00 0.44 0.44 88 1004.2
20260905145851 57 295 7.0 13.0 0.00 0.44 0.44 89 1004.0
20260905145346 57 263 6.0 9.0 0.07 0.44 0.44 90 1004.0
20260905144845 56 264 12.0 17.0 0.19 0.44 0.44 91 1004.1
20260905144341 56 303 7.0 9.0 0.14 0.42 0.42 91 1004.0
20260905143839 56 282 6.0 10.0 0.12 0.41 0.41 91 1004.0
20260905143334 57 321 6.0 8.0 0.05 0.40 0.40 90 1003.9
20260905142833 57 326 8.0 10.0 0.00 0.39 0.39 89 1003.8
20260905142327 57 295 10.0 13.0 0.07 0.39 0.39 88 1004.0
20260905141823 56 309 12.0 14.0 0.07 0.39 0.39 89 1004.1
20260905141324 56 304 15.0 18.0 0.00 0.38 0.38 87 1003.9
20260905140820 57 308 10.0 17.0 0.00 0.38 0.38 85 1003.8
20260905140319 58 314 15.0 23.0 0.00 0.38 0.38 84 1003.9
20260905135818 58 323 12.0 15.0 0.05 0.38 0.38 83 1003.8
20260905135314 61 322 19.0 32.0 0.00 0.37 0.37 78 1003.9
20260905134810 63 280 17.0 19.0 0.00 0.37 0.37 72 1003.1
20260905134308 63 251 15.0 25.0 0.00 0.37 0.37 72 1003.1
20260905133808 63 261 11.0 25.0 0.00 0.37 0.37 72 1002.8
20260905133304 63 289 17.0 25.0 0.00 0.37 0.37 72 1002.7
20260905132803 62 303 16.0 21.0 0.00 0.37 0.37 73 1002.7
20260905132258 63 273 13.0 22.0 0.00 0.37 0.37 74 1002.8
20260905131753 63 263 13.0 17.0 0.00 0.37 0.37 74 1002.7
20260905131249 63 283 18.0 19.0 0.00 0.37 0.37 75 1002.7
20260905130743 62 278 15.0 23.0 0.00 0.37 0.37 75 1002.5
20260905130243 61 280 15.0 21.0 0.00 0.37 0.37 78 1002.4
20260905125738 62 253 17.0 29.0 0.00 0.37 0.37 77 1002.8
20260905125233 62 233 15.0 25.0 0.00 0.37 0.37 77 1002.6
20260905124730 61 243 15.0 23.0 0.00 0.37 0.37 79 1002.3
20260905124225 62 266 12.0 21.0 0.00 0.37 0.37 79 1002.4
20260905123720 62 263 15.0 27.0 0.00 0.37 0.37 78 1002.6
20260905123217 62 270 13.0 19.0 0.00 0.37 0.37 80 1002.6
20260905122716 62 238 12.0 16.0 0.00 0.37 0.37 84 1002.4
20260905122211 61 256 14.0 21.0 0.00 0.37 0.37 84 1002.5
20260905121706 61 279 14.0 18.0 0.00 0.37 0.37 85 1002.4
20260905121202 61 270 14.0 19.0 0.00 0.37 0.37 85 1002.5
20260905120702 61 265 9.0 16.0 0.00 0.37 0.37 87 1002.4
20260905120156 60 260 14.0 18.0 0.07 0.37 0.37 87 1002.3
20260905115655 60 259 12.0 22.0 0.12 0.37 0.37 89 1002.4
20260905115150 60 263 12.0 18.0 0.05 0.36 0.36 90 1002.2
20260905114650 60 255 11.0 16.0 0.00 0.35 0.35 88 1002.4
20260905114148 60 273 10.0 11.0 0.00 0.35 0.35 89 1002.3
20260905113643 60 261 8.0 11.0 0.00 0.35 0.35 91 1002.4
20260905113139 59 270 8.0 10.0 0.00 0.35 0.35 93 1002.3
20260905112633 58 258 5.0 6.0 0.00 0.35 0.35 92 1002.4
20260905112129 58 283 8.0 9.0 0.07 0.35 0.35 91 1002.4
20260905111624 58 292 7.0 11.0 0.00 0.34 0.34 91 1002.3
20260905111123 57 262 13.0 21.0 0.59 0.34 0.34 91 1002.0
20260905110622 58 333 14.0 17.0 0.59 0.34 0.34 88 1002.3
20260905110117 58 278 9.0 13.0 0.00 0.24 0.24 91 1002.3
20260905105612 58 280 9.0 13.0 0.00 0.24 0.24 91 1002.0
20260905105111 58 281 11.0 11.0 0.00 0.24 0.24 90 1002.2
20260905104607 58 283 9.0 11.0 0.00 0.24 0.24 90 1002.2
20260905104107 57 265 14.0 15.0 0.19 0.24 0.24 92 1002.1
20260905103556 57 272 13.0 23.0 0.47 0.24 0.24 92 1002.1
20260905103053 57 274 11.0 22.0 0.42 0.21 0.21 92 1002.3
20260905102548 57 259 17.0 22.0 0.14 0.16 0.16 92 1002.0
20260905102044 58 256 14.0 19.0 0.00 0.14 0.14 90 1001.8
20260905101543 58 282 11.0 13.0 0.00 0.14 0.14 91 1002.0
20260905101040 58 266 9.0 15.0 0.05 0.14 0.14 90 1001.9
20260905100537 58 287 15.0 19.0 0.05 0.14 0.14 89 1001.7
20260905100037 59 256 14.0 23.0 0.00 0.13 0.13 87 1001.7
20260905095532 60 265 15.0 21.0 0.00 0.13 0.13 84 1001.7
20260905095027 60 285 13.0 19.0 0.00 0.13 0.13 84 1001.6
20260905094522 59 259 11.0 15.0 0.00 0.13 0.13 85 1001.3
20260905094021 59 267 16.0 25.0 0.00 0.13 0.13 84 1001.5
20260905093515 59 282 19.0 23.0 0.00 0.13 0.13 85 1001.3
20260905093012 59 274 18.0 21.0 0.00 0.13 0.13 86 1001.1
20260905092506 61 278 24.0 30.0 0.00 0.13 0.13 79 1001.1
20260905092002 61 260 21.0 26.0 0.00 0.13 0.13 79 1001.0
20260905091501 61 244 17.0 21.0 0.00 0.13 0.13 79 1000.8
20260905090956 61 241 12.0 19.0 0.00 0.13 0.13 79 1000.8
20260905090451 60 258 14.0 16.0 0.00 0.13 0.13 81 1001.0
20260905085950 61 253 17.0 26.0 0.00 0.13 0.13 78 1000.6
20260905085450 61 287 17.0 19.0 0.00 0.13 0.13 80 1000.6
20260905084946 61 256 26.0 30.0 0.00 0.13 0.13 80 1000.8
20260905084445 61 289 18.0 27.0 0.00 0.13 0.13 80 1000.3
20260905083945 60 255 17.0 22.0 0.00 0.13 0.13 82 1000.8
20260905083441 60 296 18.0 30.0 0.00 0.13 0.13 82 1000.6
20260905082936 60 279 20.0 22.0 0.00 0.13 0.13 83 1000.4
20260905082432 60 271 22.0 24.0 0.00 0.13 0.13 85 1000.4
20260905081927 60 262 11.0 19.0 0.00 0.13 0.13 86 1000.4
20260905081422 59 264 19.0 23.0 0.00 0.13 0.13 88 1000.3
20260905080921 59 235 15.0 19.0 0.00 0.13 0.13 90 1000.1
20260905080416 60 275 23.0 29.0 0.00 0.13 0.13 87 999.9
20260905075914 61 260 21.0 33.0 0.00 0.13 0.13 84 999.5
20260905075409 60 315 19.0 26.0 0.00 0.13 0.13 85 999.4
20260905074908 60 273 15.0 21.0 0.00 0.13 0.13 87 999.6
20260905074404 60 272 23.0 30.0 0.00 0.13 0.13 87 999.4
20260905073900 60 280 13.0 31.0 0.00 0.13 0.13 88 999.6
20260905073355 60 271 12.0 17.0 0.00 0.13 0.13 88 999.4
20260905072850 60 272 15.0 22.0 0.00 0.13 0.13 87 999.3
20260905072345 60 297 12.0 17.0 0.00 0.13 0.13 88 999.1
20260905071841 60 278 20.0 24.0 0.00 0.13 0.13 87 999.2
20260905071338 60 288 23.0 25.0 0.00 0.13 0.13 88 998.7
20260905070837 60 274 25.0 27.0 0.00 0.13 0.13 90 998.8
20260905070333 60 258 11.0 17.0 0.00 0.13 0.13 91 998.8
20260905065832 59 249 17.0 19.0 0.00 0.13 0.13 91 999.0
20260905065331 59 283 19.0 23.0 0.00 0.13 0.13 91 998.7
20260905064826 59 254 16.0 19.0 0.00 0.13 0.13 92 998.8
20260905064322 59 245 11.0 18.0 0.00 0.13 0.13 92 998.6
20260905063820 59 259 10.0 16.0 0.00 0.13 0.13 92 998.4
20260905063316 59 270 14.0 17.0 0.00 0.13 0.13 93 998.4
20260905062813 59 266 14.0 18.0 0.00 0.13 0.13 94 998.4
20260905062307 58 254 11.0 13.0 0.00 0.13 0.13 94 998.5
20260905061802 58 249 4.0 8.0 0.00 0.13 0.13 94 998.3
20260905061301 58 272 6.0 10.0 0.00 0.13 0.13 93 998.1
20260905060756 58 276 7.0 9.0 0.00 0.13 0.13 93 998.2
20260905060253 58 274 6.0 10.0 0.00 0.13 0.13 93 998.3
20260905055751 58 249 8.0 9.0 0.07 0.13 0.13 93 998.1
20260905055246 58 240 7.0 9.0 0.12 0.13 0.13 94 998.0
20260905054741 58 249 9.0 10.0 0.05 0.12 0.12 94 997.9
20260905054238 58 257 6.0 11.0 0.07 0.11 0.11 95 997.9
20260905053737 58 250 8.0 13.0 0.07 0.11 0.11 95 998.1
20260905053233 58 241 6.0 9.0 0.00 0.10 0.10 95 997.9
20260905052732 58 247 9.0 15.0 0.00 0.10 0.10 96 997.8
20260905052227 58 237 8.0 13.0 0.00 0.10 0.10 96 997.8
20260905051726 58 252 10.0 15.0 0.00 0.10 0.10 97 997.7
20260905051223 57 248 10.0 13.0 0.05 0.10 0.10 97 997.7
20260905050719 57 218 5.0 8.0 0.05 0.10 0.10 97 997.5
20260905050216 57 198 5.0 7.0 0.00 0.09 0.09 97 997.5
20260905045715 57 218 6.0 8.0 0.00 0.09 0.09 97 997.8
20260905045212 57 207 7.0 9.0 0.00 0.09 0.09 96 997.6
20260905044712 57 220 3.0 8.0 0.07 0.09 0.09 96 997.7
20260905044208 57 234 6.0 7.0 0.12 0.09 0.09 96 997.9
20260905043706 57 234 6.0 8.0 0.12 0.08 0.08 96 997.7
20260905043201 57 182 4.0 9.0 0.07 0.07 0.07 96 997.6
20260905042701 57 214 4.0 6.0 0.00 0.06 0.06 96 997.8
20260905042200 57 242 4.0 7.0 0.00 0.06 0.06 96 997.7
20260905041656 57 242 4.0 7.0 0.00 0.06 0.06 95 998.0
20260905041151 57 219 3.0 8.0 0.00 0.06 0.06 95 997.7
20260905040646 57 215 3.0 6.0 0.05 0.06 0.06 95 997.6
20260905040140 57 254 4.0 6.0 0.00 0.05 0.05 95 997.6
20260905035634 57 244 7.0 9.0 0.00 0.05 0.05 95 997.8
20260905035131 57 245 4.0 6.0 0.00 0.05 0.05 95 997.9
20260905034627 57 249 8.0 11.0 0.00 0.05 0.05 95 997.9
20260905034126 57 239 6.0 11.0 0.00 0.05 0.05 95 998.2
20260905033625 57 251 6.0 10.0 0.00 0.05 0.05 95 998.2
20260905033121 57 250 6.0 7.0 0.00 0.05 0.05 95 998.0
20260905032621 57 242 7.0 9.0 0.00 0.05 0.05 95 997.9
20260905032121 57 248 8.0 10.0 0.00 0.05 0.05 95 997.6
20260905031617 57 259 8.0 10.0 0.00 0.05 0.05 95 997.8
20260905031117 57 256 6.0 8.0 0.00 0.05 0.05 95 997.7
20260905030612 57 274 5.0 9.0 0.00 0.05 0.05 95 997.8
20260905030108 57 245 7.0 9.0 0.00 0.05 0.05 95 997.8
20260905025608 57 265 6.0 10.0 0.00 0.05 0.05 95 997.7
20260905025104 57 270 8.0 9.0 0.00 0.05 0.05 95 997.6
20260905024600 57 277 8.0 10.0 0.00 0.05 0.05 95 997.6
20260905024055 57 267 5.0 8.0 0.00 0.05 0.05 95 997.4
20260905023550 57 273 6.0 9.0 0.00 0.05 0.05 96 997.3
20260905023049 57 285 9.0 11.0 0.00 0.05 0.05 96 997.4
20260905022549 57 282 5.0 7.0 0.00 0.05 0.05 96 997.1
20260905022044 56 250 6.0 7.0 0.00 0.05 0.05 95 997.6
20260905021544 56 264 5.0 8.0 0.00 0.05 0.05 95 997.8
20260905021039 56 256 5.0 8.0 0.00 0.05 0.05 95 997.7
20260905020538 56 258 7.0 8.0 0.00 0.05 0.05 95 997.6
20260905020034 56 264 4.0 7.0 0.00 0.05 0.05 96 997.8
20260905015532 56 250 8.0 9.0 0.00 0.05 0.05 96 997.4
20260905015027 56 260 7.0 8.0 0.00 0.05 0.05 96 997.2